User: anonymous   Login
Location: Unspecified
(0.0000°N, 0.0000°E)
Time: 13:47:00
(UTC+00:00)
Language:

Kosmos-1333 - Orbit

View from above orbital plane
View from above orbital plane
View from above satellite
View from above satellite

Ground track
Ground track

The orbit data is extracted from the following two-line orbital elements,

1 13033U 82003A   17114.56301626 +.00000049 +00000-0 +36525-4 0  9994
2 13033 082.9387 112.9622 0033544 120.0924 001.9386 13.73192357767670
Epoch (UTC): 24 April 2017 13:30:44
Eccentricity: 0.0033544
inclination: 82.9387°
perigee height: 963 km
apogee height: 1013 km
right ascension of ascending node: 112.9622°
argument of perigee: 120.0924°
revolutions per day: 13.73192357
mean anomaly at epoch: 1.9386°
orbit number at epoch: 76767

The dashed part of the orbit path shows where the satellite is in the earth's shadow,  

DLR